Voltar ao catálogo

OPS 4682 DEB

AtivoPO
NORAD 38404·DEBRIS·🇺🇸 United States

Lançado Apr 3, 1965 de Vandenberg Space Force Base

Loading…

Próximas Passagens (próximas 24 horas)

TLE

AtualizadoSource: Space-Track

Época: Sep 14, 2026, 06:35 UTC

1 38404U 65027DH  26257.27494690 -.00000177  00000-0 -61604-3 0  9999
2 38404  90.2483   8.3128 0021195  72.2682 288.0751 12.99776419676391

Acompanhe OPS 4682 DEB em tempo real com AllMySat

Download on the App Store